Gadsden, AL

6:13 PM CST on December 11, 2019 (GMT -0600)
Gadsden Municipal

Weather History for KGAD - May, 2019

Change the Weather History Date:

Wednesday, May 1, 2019

  Actual Average Record
Temperature  
Mean Temperature 74 °F -  
Max Temperature 87 °F 73 °F 91 °F (1942)
Min Temperature 60 °F 50 °F 41 °F (1945)
Cooling Degree Days 8    
Growing Degree Days 24 (Base 50)    
Moisture  
Dew Point 65 °F    
Average Humidity 78    
Maximum Humidity 100    
Minimum Humidity 46    
Precipitation  
Precipitation 0.05 in - - ()
Sea Level Pressure  
Sea Level Pressure 30.18 in    
Wind  
Wind Speed 3 mph (South)    
Max Wind Speed 14 mph    
Max Gust Speed 21 mph    
Visibility 10 miles    
Events Rain , Thunderstorm    
Averages and records for this station are not official NWS values.
T = Trace of Precipitation, MM = Missing Value Source: NWS Daily Summary

Daily Weather History Graph

Daily Weather History Graph

Search for Another Location

Airport or City:

Astronomy

May. 01, 2019 Rise Set
Actual Time 5:55 AM CDT 7:27 PM CDT
Civil Twilight 5:28 AM CDT 7:54 PM CDT
Nautical Twilight 4:56 AM CDT 8:26 PM CDT
Astronomical Twilight 4:23 AM CDT 9:00 PM CDT
Moon 4:26 AM CDT (5/1) 4:28 PM CDT (5/1)
Length of Visible Light 14h 25m
Length of Day
13h 32m
Waning Crescent, 10% of the Moon is Illuminated
May 1
Waning Crescent
May 4
New
May 11
First Quarter
May 18
Full
May 26
Last Quarter

Hourly Weather History & Observations

Time (CDT) Temp. Heat Index Dew Point Humidity Pressure Visibility Wind Dir Wind Speed Gust Speed Precip Events Conditions
12:56 AM 63.0 °F - 63.0 °F 100% 30.16 in 10.0 mi Calm Calm - N/A   Clear
2:56 AM 60.1 °F - 60.1 °F 100% 30.15 in 10.0 mi Calm Calm - N/A   Clear
3:56 AM 61.0 °F - - N/A% 30.16 in 8.0 mi Calm Calm - N/A   Clear
4:56 AM 60.1 °F - 60.1 °F 100% 30.17 in 10.0 mi Calm Calm - N/A   Clear
5:56 AM 60.1 °F - 60.1 °F 100% 30.19 in 10.0 mi Calm Calm - N/A   Clear
6:56 AM 61.0 °F - 61.0 °F 100% 30.23 in 10.0 mi Calm Calm - N/A   Clear
7:56 AM 69.1 °F - 68.0 °F 96% 30.24 in 10.0 mi WSW 3.5 mph - N/A   Clear
8:56 AM 73.0 °F - 66.9 °F 81% 30.24 in 10.0 mi South 4.6 mph - N/A   Clear
9:56 AM 78.1 °F - 66.0 °F 66% 30.25 in 10.0 mi Variable 6.9 mph - N/A   Clear
10:56 AM 80.1 °F 81.2 °F 62.1 °F 54% 30.24 in 10.0 mi South 10.4 mph - N/A   Partly Cloudy
11:56 AM 82.9 °F 84.6 °F 64.9 °F 54% 30.22 in 10.0 mi SSW 8.1 mph - N/A   Clear
12:56 PM 84.0 °F 84.9 °F 63.0 °F 49% 30.20 in 10.0 mi South 9.2 mph - N/A   Partly Cloudy
1:56 PM 84.0 °F 84.9 °F 63.0 °F 49% 30.18 in 10.0 mi South 9.2 mph 16.1 mph N/A   Clear
2:56 PM 87.1 °F 89.2 °F 66.0 °F 49% 30.15 in 10.0 mi South 8.1 mph - N/A   Partly Cloudy
3:56 PM 86.0 °F 86.8 °F 63.0 °F 46% 30.14 in 10.0 mi SSW 6.9 mph - N/A   Clear
4:56 PM 84.9 °F 86.1 °F 64.0 °F 49% 30.13 in 10.0 mi South 5.8 mph - N/A   Clear
5:56 PM 84.0 °F 86.3 °F 66.0 °F 55% 30.13 in 10.0 mi SSW 4.6 mph - N/A   Clear
6:56 PM 80.1 °F 83.2 °F 70.0 °F 71% 30.14 in 10.0 mi Calm Calm - N/A   Partly Cloudy
7:30 PM 78.8 °F - 69.8 °F 74% 30.15 in 9.0 mi Calm Calm - N/A Thunderstorm Overcast
7:56 PM 71.1 °F - 68.0 °F 90% 30.17 in 10.0 mi NW 13.8 mph 20.7 mph 0.03 in Rain , Thunderstorm Thunderstorms and Rain
8:43 PM 68.0 °F - 68.0 °F 100% 30.16 in 10.0 mi SSE 4.6 mph - 0.01 in   Mostly Cloudy
8:56 PM 66.9 °F - 66.9 °F 100% 30.18 in 10.0 mi SW 3.5 mph - 0.01 in Rain Light Rain
9:04 PM 66.2 °F - 66.2 °F 100% 30.18 in 10.0 mi Calm Calm - 0.00 in Rain , Thunderstorm Light Rain
9:19 PM 66.2 °F - 66.2 °F 100% 30.18 in 10.0 mi ENE 4.6 mph - 0.00 in Rain Light Rain
9:56 PM 66.9 °F - - N/A% 30.18 in 10.0 mi Calm Calm - 0.00 in   Clear
10:56 PM 66.0 °F - - N/A% 30.18 in 8.0 mi Calm Calm - N/A   Clear
11:56 PM 66.0 °F - - N/A% 30.18 in 6.0 mi Calm Calm - 0.01 in   Haze